SL-14 DEB, 45274

Orbit data source: Space-Track

SL-14 DEB, 45274 is space debris in LEO originally from a launch on Thu, 15 Aug 1991 UTC launched from the Plesetsk Missile And Space Complex (PKMTR). Debris objects in space refer to the collection of defunct objects orbiting the Earth. Examples of debris include non-operational satellites, rocket bodies, and fragments generated from explosions, collisions, or faulty payload assembly.

Loading next visibility...
Identifier
45274, 1991-056L
Orbit
LEO
Country
Flag of CISCIS
Related business
Manufacturer
Unknown
Mission
Spacecraft
Bus & Motor
Unknown
Mass
Unknown
Launch date (UTC)
1991-08-15 (34 years ago)
Launch vehicle
Unknown
Launch site
Plesetsk Missile And Space Complex (PKMTR)
Object type
Payload
Rocket body
Debris
Shape & HBR
Unknown shape, 0.2 m
Radar Cross Section
Medium (>0.1 m² and <1 m²)

Expand to show TLE details & history
Last TLE update: 1 day ago

TLE from 1 day ago
0 SL-14 DEB
1 45274U 91056L   25300.44226071  .00000402  00000-0  10007-2 0  9995
2 45274  82.5344 300.0557 0028751  13.2505 346.9366 13.17621074274078
Epoch: 2025-10-27T10:36Z
TLE epoch observation values (Epoch: 2025-10-27T10:36:51.325Z)
Latitude
-0.00005°
Longitude
104.79779°
Altitude
1,175.421 km
Speed
7.276 km/s
True Right ascension
20h 00m 13s
True Declination
0° 00' 00"
Sunlit
Object was in daylight at epoch
Visualization orbit readout
Latitude
Unknown
Longitude
Unknown
Altitude
Unknown
Speed
Unknown
Apparent Right ascension
Unknown
Apparent Declination
Unknown
Sunlit
N/A
Visualization observer readout
Local Sidereal Time
07:56:30
Azimuth
Unknown
Elevation
Unknown
Doppler factor
Unknown
Orbital elements
Apogee altitude
1,212.827 km
Perigee altitude
1,169.302 km
Semi-major axis
7,569.202 km
Eccentricity
0.00288
Inclination
82.5344°
RAAN
300.0557°
Arg. of periapsis
13.2505°
True anomaly
346.86187°
Mean anomaly
346.9366°
Eccentric anomaly
346.89926°
Mean motion
3.29585 °/min
Orbital period
109.23 mins
BSTAR
0.0010007
Loading maneuver chart data...
Computing Atmospheric mass density...
Loading historical data...
Loading historical data...
Loading historical data...
Loading historical data...
Loading historical data...
Loading historical data...
Loading historical data...

Documentation

Showing up to 5 results
|